DW8953 Weather Reports


Display with metric or nautical units.
time (UTC)temp
F
wind
direction
speed
MPH
gust
MPH
rain 1hr
in
rain 24hr
in
rain mn
in
humidity
%
barometer
mb
20210923074656 49 0 0.0 0.0 0.01 0.14 0.01 95 1018.5
20210923073202 49 0 0.0 0.0 0.01 0.14 0.01 95 1018.5
20210923071601 49 0 0.0 0.0 0.01 0.14 0.01 94 1018.6
20210923070130 49 0 0.0 0.0 0.01 0.14 0.01 94 1018.6
20210923064600 50 0 0.0 0.0 0.00 0.14 0.00 94 1018.8
20210923063150 50 0 0.0 0.0 0.00 0.14 0.00 94 1018.8
20210923061624 50 0 0.0 0.0 0.00 0.14 0.00 93 1019.1
20210923060112 50 0 0.0 0.0 0.00 0.14 0.00 92 1019.2
20210923054656 51 0 0.0 0.0 0.00 0.15 0.00 92 1019.2
20210923053246 51 0 0.0 0.0 0.00 0.15 0.00 91 1019.3
20210923051623 52 0 0.0 0.0 0.00 0.15 0.00 91 1019.4
20210923050057 53 0 0.0 0.0 0.01 0.15 0.00 89 1019.4
20210923044654 53 0 0.0 0.0 0.01 0.16 0.15 89 1019.4
20210923043126 54 0 0.0 0.0 0.01 0.16 0.15 88 1019.3
20210923041613 55 0 0.0 0.0 0.01 0.16 0.15 88 1019.3
20210923040151 55 0 0.0 1.0 0.00 0.15 0.14 87 1019.4
20210923034556 56 0 0.0 2.0 0.00 0.16 0.14 87 1019.4
20210923033129 56 0 0.0 2.0 0.00 0.16 0.14 86 1019.4
20210923031734 57 0 0.0 1.0 0.00 0.16 0.14 84 1019.4
20210923030058 57 0 0.0 4.0 0.00 0.16 0.14 83 1019.3
20210923024617 57 40 0.0 5.0 0.00 0.16 0.14 82 1019.5
20210923023117 58 0 0.0 4.0 0.00 0.16 0.14 82 1019.4
20210923021552 58 337 0.0 7.0 0.00 0.16 0.14 81 1019.3
20210923020128 58 325 0.0 4.0 0.00 0.16 0.14 82 1019.3
20210923014653 59 351 0.0 5.0 0.00 0.17 0.14 82 1019.3
20210923013245 59 0 1.0 4.0 0.00 0.17 0.14 82 1019.3
20210923011705 60 0 0.0 3.0 0.01 0.17 0.14 81 1019.0
20210923010109 60 0 1.0 7.0 0.01 0.17 0.14 80 1018.9
20210923004625 61 5 1.0 6.0 0.01 0.18 0.14 78 1018.9
20210923003051 62 334 2.0 9.0 0.01 0.18 0.14 76 1018.5
20210923001611 62 336 3.0 9.0 0.00 0.17 0.13 74 1018.3
20210923000132 63 336 3.0 10.0 0.00 0.17 0.13 73 1018.3
20210922234708 64 5 3.0 9.0 0.00 0.18 0.13 70 1018.2
20210922233142 65 340 3.0 13.0 0.00 0.18 0.13 68 1018.1
20210922231653 65 355 4.0 12.0 0.01 0.18 0.13 68 1018.0
20210922230149 66 279 2.0 11.0 0.01 0.18 0.13 69 1017.9
20210922224735 67 341 4.0 10.0 0.01 0.20 0.13 67 1017.8
20210922223107 68 323 4.0 12.0 0.01 0.20 0.13 65 1017.7
20210922221559 69 304 2.0 14.0 0.00 0.19 0.12 63 1017.4
20210922220141 69 252 3.0 13.0 0.00 0.19 0.12 60 1017.3
20210922214611 70 287 4.0 10.0 0.01 0.21 0.12 59 1017.2
20210922213104 71 308 5.0 13.0 0.01 0.21 0.12 59 1017.2
20210922211640 71 317 3.0 13.0 0.01 0.21 0.12 64 1017.3
20210922210126 71 304 3.0 13.0 0.01 0.21 0.12 63 1017.4
20210922204603 71 285 3.0 10.0 0.00 0.22 0.11 64 1017.2
20210922203138 70 281 7.0 14.0 0.01 0.22 0.11 64 1017.5
20210922201648 70 319 5.0 12.0 0.01 0.22 0.11 63 1017.5
20210922200136 70 328 2.0 14.0 0.01 0.22 0.11 66 1017.4
20210922194728 69 340 2.0 13.0 0.01 0.23 0.11 68 1017.5
20210922193130 70 329 4.0 11.0 0.00 0.22 0.10 67 1017.4
20210922191630 69 325 4.0 15.0 0.00 0.22 0.10 70 1017.5
20210922190154 69 0 0.0 0.0 0.01 0.22 0.10 75 1017.5
20210922184621 70 0 0.0 0.0 0.01 0.24 0.10 73 1017.7
20210922181633 68 0 0.0 0.0 0.01 0.24 0.10 74 1018.1
20210922180111 68 0 0.0 0.0 0.00 0.23 0.09 80 1018.1
20210922174631 67 0 0.0 0.0 0.01 0.25 0.09 80 1018.0
20210922173122 67 0 0.0 0.0 0.01 0.25 0.09 82 1018.2
20210922171636 66 0 0.0 0.0 0.01 0.25 0.09 84 1018.0
20210922170107 66 0 0.0 0.0 0.01 0.25 0.09 82 1017.9
20210922164650 66 0 0.0 0.0 0.00 0.26 0.08 85 1018.0
20210922163149 65 0 0.0 0.0 0.00 0.26 0.08 90 1018.1
20210922161608 64 0 0.0 0.0 0.01 0.26 0.08 91 1018.2
20210922124648 59 0 0.0 0.0 0.01 0.31 0.06 97 1018.8
20210922123230 59 0 0.0 0.0 0.01 0.31 0.06 96 1018.7
20210922121716 60 0 0.0 0.0 0.00 0.30 0.05 95 1018.6
20210922120050 60 0 0.0 0.0 0.00 0.30 0.05 95 1018.0
20210922114624 61 0 0.0 0.0 0.01 0.32 0.05 95 1017.7
20210922113129 61 0 0.0 0.0 0.01 0.32 0.05 95 1017.3
20210922111556 62 0 0.0 0.0 0.01 0.32 0.05 96 1016.7
20210922110247 63 0 0.0 0.0 0.01 0.32 0.05 97 1016.5
20210922104558 64 0 0.0 0.0 0.00 0.34 0.04 97 1016.1
20210922103115 65 0 0.0 0.0 0.00 0.34 0.04 97 1015.8
20210922101714 66 0 0.0 0.0 0.00 0.34 0.04 97 1015.5
20210922100120 67 0 0.0 0.0 0.01 0.34 0.04 98 1015.1
20210922094633 68 0 0.0 0.0 0.01 0.37 0.04 98 1014.6
20210922093114 70 0 0.0 0.0 0.01 0.37 0.04 98 1014.5
20210922091603 70 0 0.0 0.0 0.01 0.37 0.04 98 1014.2
20210922090125 70 0 0.0 0.0 0.00 0.36 0.03 99 1014.4
20210922084618 71 0 0.0 0.0 0.01 0.40 0.03 98 1014.5
20210922083138 71 0 0.0 0.0 0.01 0.40 0.03 99 1014.4
20210922081548 71 0 0.0 0.0 0.01 0.40 0.03 99 1014.4
20210922080136 72 0 0.0 0.0 0.01 0.40 0.03 98 1014.6